Change the Weather History Date:

Wednesday, May 9, 2012

  Actual Average Record
Temperature  
Mean Temperature 65 °F -  
Max Temperature 78 °F 78 °F 91 °F (1986)
Min Temperature 55 °F 53 °F 38 °F (1924)
Growing Degree Days 15 (Base 50)    
Moisture  
Dew Point 47 °F    
Average Humidity 56    
Maximum Humidity 83    
Minimum Humidity 27    
Precipitation  
Precipitation 0.00 in - - ()
Sea Level Pressure  
Sea Level Pressure 29.95 in    
Wind  
Wind Speed 6 mph (NNW)    
Max Wind Speed 14 mph    
Max Gust Speed 17 mph    
Visibility 10 miles    
Events      
Averages and records for this station are not official NWS values.
T = Trace of Precipitation, MM = Missing Value Source: NWS Daily Summary

Daily Weather History Graph

Daily Weather History Graph

Search for Another Location

Airport or City:

Trip Planner

Search our weather history database for the weather conditions in past years. The results will help you decide how hot, cold, wet, or windy it might be!

Date:

Astronomy

May. 09, 2012 Rise Set
Actual Time 5:58 AM CDT 7:57 PM CDT
Civil Twilight 5:30 AM CDT 8:25 PM CDT
Nautical Twilight 4:55 AM CDT 9:00 PM CDT
Astronomical Twilight 4:18 AM CDT 9:37 PM CDT
Moon 11:56 PM CDT (5/9) 9:15 AM CDT (5/9)
Length of Visible Light 14h 55m
Length of Day
13h 58m
Waning Gibbous, 82% of the Moon is Illuminated
May 9
Waning Gibbous
May 12
Last Quarter
May 20
New
May 28
First Quarter
Jun 4
Full

Hourly Weather History & Observations

Time (CDT) Temp. Dew Point Humidity Pressure Visibility Wind Dir Wind Speed Gust Speed Precip Events Conditions
12:53 AM 59.0 °F 51.1 °F 75% 29.98 in 10.0 mi NW 5.8 mph - N/A   Clear
1:53 AM 57.9 °F 51.1 °F 78% 29.96 in 10.0 mi NW 3.5 mph - N/A   Clear
2:53 AM 57.0 °F 50.0 °F 77% 29.95 in 10.0 mi NW 6.9 mph - N/A   Clear
3:53 AM 55.9 °F 50.0 °F 80% 29.95 in 10.0 mi NW 3.5 mph - N/A   Clear
4:53 AM 55.9 °F 50.0 °F 80% 29.95 in 10.0 mi Calm Calm - N/A   Clear
5:53 AM 55.0 °F 50.0 °F 83% 29.96 in 10.0 mi NW 8.1 mph - N/A   Clear
6:53 AM 55.9 °F 50.0 °F 80% 29.97 in 10.0 mi NW 6.9 mph - N/A   Clear
7:53 AM 61.0 °F 50.0 °F 67% 29.97 in 10.0 mi NW 5.8 mph - N/A   Clear
8:53 AM 66.0 °F 51.1 °F 59% 29.98 in 10.0 mi North 6.9 mph - N/A   Clear
9:53 AM 69.1 °F 51.1 °F 53% 29.99 in 10.0 mi NNW 10.4 mph - N/A   Clear
10:53 AM 72.0 °F 48.9 °F 44% 29.99 in 10.0 mi NNW 8.1 mph - N/A   Clear
11:53 AM 73.9 °F 46.9 °F 38% 29.97 in 10.0 mi Variable 6.9 mph - N/A   Clear
12:53 PM 75.0 °F 42.1 °F 31% 29.95 in 10.0 mi NNW 10.4 mph - N/A   Clear
1:53 PM 75.9 °F 45.0 °F 33% 29.93 in 10.0 mi NNW 13.8 mph - N/A   Clear
2:53 PM 75.9 °F 43.0 °F 31% 29.93 in 10.0 mi NNW 13.8 mph - N/A   Clear
3:53 PM 75.9 °F 43.0 °F 31% 29.91 in 10.0 mi NW 10.4 mph 17.3 mph N/A   Clear
4:53 PM 75.9 °F 39.9 °F 27% 29.91 in 10.0 mi NNW 10.4 mph - N/A   Clear
5:53 PM 75.0 °F 41.0 °F 29% 29.91 in 10.0 mi NNW 6.9 mph - N/A   Clear
6:53 PM 73.0 °F 41.0 °F 31% 29.91 in 10.0 mi North 11.5 mph - N/A   Clear
7:53 PM 68.0 °F 45.0 °F 43% 29.92 in 10.0 mi North 6.9 mph - N/A   Clear
8:53 PM 64.0 °F 46.9 °F 54% 29.93 in 9.0 mi North 5.8 mph - N/A   Clear
9:53 PM 60.1 °F 46.9 °F 62% 29.95 in 10.0 mi North 3.5 mph - N/A   Clear
10:53 PM 57.9 °F 48.0 °F 70% 29.95 in 10.0 mi Calm Calm - N/A   Clear
11:53 PM 55.9 °F 50.0 °F 80% 29.96 in 10.0 mi Calm Calm - N/A   Clear